Regional Weather Roundup
Issued by NWS Wilmington, NC

Home | Current Version | Previous Version | Text Only | Print | Product List | Glossary On
Versions: 1 2 3 4 5 6 7 8 9 10 11 12 13 14 15 16 17 18 19 20 21 22 23 24 25 26 27 28 29 30 31 32 33 34 35 36 37 38 39 40 41 42 43 44 45 46 47 48 49 50
000
ASUS42 KILM 211210
RWRILM
RWRILM
REGIONAL HOURLY WEATHER ROUNDUP
NATIONAL WEATHER SERVICE WILMINGTON NC
700 AM EST FRI NOV 21 2014

NOTE: "FAIR" INDICATES FEW OR NO CLOUDS BELOW 12,000 FEET WITH NO
SIGNIFICANT WEATHER AND/OR OBSTRUCTIONS TO VISIBILITY.

...............WFO WILMINGTON COUNTY WARNING AREA...............

......COASTAL NC AND SC COUNTIES......

CITY           SKY/WX    TMP DP  RH WIND       PRES   REMARKS
WILMINGTON     PTCLDY    41  34  76 NW3       30.30R
SOUTHPORT      PTCLDY    44  35  70 N8        30.30R
N MYRTLE BEACH PTCLDY    44  35  70 N6        30.30R
MYRTLE BEACH   CLEAR     45  34  65 NW7       30.29R

......INLAND NC AND SC COUNTIES.......

CITY           SKY/WX    TMP DP  RH WIND       PRES   REMARKS
LUMBERTON      PTCLDY    34  30  85 CALM      30.31R
ELIZABETHTOWN  PTCLDY    37  32  82 CALM      30.31R
WHITEVILLE     PTCLDY    36  34  93 CALM      30.30R
FLORENCE       CLEAR     34  29  82 CALM      30.31R
DARLINGTON     CLEAR     36  27  69 N6        30.32R WCI  31

....................REST OF NORTH CAROLINA......................

.........EASTERN NC.........

CITY           SKY/WX    TMP DP  RH WIND       PRES   REMARKS
CAPE HATTERAS  CLEAR     44  29  55 NW10G16   30.26R
JACKSONVILLE   PTCLDY    30  27  86 CALM      30.32R
MOREHEAD CITY  PTCLDY    42  35  76 N9        30.30R
KENANSVILLE    PTCLDY    35  30  83 CALM      30.33R
NEW BERN       CLEAR     40  27  59 NW6       30.32R
ELIZABETH CITY CLEAR     39  27  62 NW9       30.30R WCI  33

.........CENTRAL NC.........

CITY           SKY/WX    TMP DP  RH WIND       PRES   REMARKS
RALEIGH DURHAM PTCLDY    29  22  75 CALM      30.32R
ROCKY MOUNT    CLEAR     27  23  85 CALM      30.33R
ROANOKE RAPIDS NOT AVBL
FAYETTEVILLE   CLEAR     36  30  79 CALM      30.31R
HOFFMAN        MOCLDY    28  28  99 N2        30.32R

.........WESTERN NC.........

CITY           SKY/WX    TMP DP  RH WIND       PRES   REMARKS
CHARLOTTE      MOCLDY    34  24  67 NW3       30.31R
GREENSBORO     PTCLDY    30  17  58 CALM      30.30R
HICKORY        NOT AVBL
BOONE          NOT AVBL
ASHEVILLE      NOT AVBL

.....................REST OF SOUTH CAROLINA.....................

.........EASTERN SC.........

CITY           SKY/WX    TMP DP  RH WIND       PRES   REMARKS
CHARLESTON     PTCLDY    41  35  79 VRB3      30.32R
BEAUFORT MCAS  PTCLDY    39  35  86 CALM      30.32R
HILTON HEAD    CLEAR     43  39  87 NW5       30.33

.........CENTRAL SC.........

CITY           SKY/WX    TMP DP  RH WIND       PRES   REMARKS
COLUMBIA       CLEAR     38  32  79 CALM      30.31R
ORANGEBURG     CLEAR     41  32  70 N3        30.30R
SUMTER SHAW    PTCLDY    41  31  68 NW7       30.29R

.........WESTERN SC.........

CITY           SKY/WX    TMP DP  RH WIND       PRES   REMARKS
GREENVILLE     NOT AVBL
ROCK HILL      PTCLDY    29  26  89 CALM      30.31R
ANDERSON       PTCLDY    35  27  72 NW3       30.31R
CLEMSON        NOT AVBL
GREENWOOD      CLEAR     41  27  57 NW5       30.32R


...................COASTAL AND OFFSHORE REPORTS..................

................LOCAL PIERS AND NC RESERVE................


STATION/POSITION TIME  SKY/WX   TEMP    WIND        PRES    VSBY
                                AIR SEA DIR/SP/G
                 (UTC)          (F)     (DEG/KT/KT) (MB)    (MI)
JOHNY MRCER PIER 1200            45 60  330/  7/  9 1025.3R
NC RESRV MASNBRO 1100            43        CALM     1024.0S
OCEAN CREST PIER 1200            46 56  310/  9/ 13 1024.8R
SPRINGMAID  PIER 1200            43 56  320/  6/  7 1025.9R


................COASTAL AND OFFSHORE BUOYS................


STATION/POSITION TIME  SKY/WX   TEMP    WIND        PRES    VSBY
                                AIR SEA DIR/SP/G
                 (UTC)          (F)     (DEG/KT/KT) (MB)    (MI)
DIMNDSHOAL 41025 1200            52     320/ 17/ 23 1024.2R
WVE H/P(F/S)=  6/ 8 WND WVE H/P(F/S)=  5/ 6 SWL H/P/D(F/S/D)=  3/200/ 8

CAPE LOOKOUT     1100            48     320/ 13/ 15 1024.5R
ONSLOW BAY 41036 1200            55 69  340/ 19/ 23 1024.5R
WVE H/P(F/S)=  5/ 6 WND WVE H/P(F/S)=  5/ 6

5 WRITEBCH 41038 1100            49 60  330/ 17/ 21 1024.3R
MASONBORO  41110 1200               60                N/A
WVE H/P(F/S)=  2/ 6 WND WVE H/P(F/S)=  2/ 6

WILM HARBR 41108 1200               61                N/A
WVE H/P(F/S)=  4/ 5 WND WVE H/P(F/S)=  3/ 5

27WRITEBCH 41037 1100            54 69  350/ 17/ 21 1024.8R
FRYING PAN 41013 1200            58 66  330/ 19/ 23 1025.4R
WVE H/P(F/S)=  5/ 6 WND WVE H/P(F/S)=  5/ 6

SUNST NRSH 41024 1100            49     330/ 12/ 14 1021.5R
CAPRS NRSH 41029 1100            52     320/ 12/ 14   N/A
EDISTO     41004 1200            62 72  330/ 17/ 19 1025.1R
WVE H/P(F/S)=  3/ 4 WND WVE H/P(F/S)=  3/ 4 SWL H/P/D(F/S/D)=  2/ 9



..........OFFSHORE BUOYS BEYOND 100 NM OFFSHORE...........
.....IN A TRIANGLE---HAT TO BERMUDA TO BAHAMAS TO HAT.....


STATION/POSITION TIME  SKY/WX   TEMP    WIND        PRES    VSBY
                                AIR SEA DIR/SP/G
                 (UTC)          (F)     (DEG/KT/KT) (MB)    (MI)
150E HAT   41001 NOT AVBL
W BERMUDA  41048 1137            71 75  300/ 17/ 23 1021.2R
WVE H/P(F/S)=  5/ 6 WND WVE H/P(F/S)=  5/ 6

ATLANTIC S 41049 1129            81 79  180/ 10/ 12 1020.4R
WVE H/P(F/S)=  6/ 8 WND WVE H/P(F/S)=  2/ 5 SWL H/P/D(F/S/D)=  7/ 40/ 8

E BAHAMAS  41046 1100            81 82  100/ 12/ 14 1018.5R
WVE H/P(F/S)=  7/ 8 WND WVE H/P(F/S)=  3/ 5 SWL H/P/D(F/S/D)=  7/ 10/ 8

NE BAHAMAS 41047 1108            74 78   40/ 17/ 21 1020.8R
WVE H/P(F/S)=  6/ 8 WND WVE H/P(F/S)=  3/ 5 SWL H/P/D(F/S/D)=  5/ 80/ 8

120E CANVRL41010 1200            70 78   40/ 14/ 17 1023.9R
WVE H/P(F/S)=  4/ 7 WND WVE H/P(F/S)=  2/ 5 SWL H/P/D(F/S/D)=  3/100/ 7


END



USA.gov is the U.S. government's official web portal to all federal, state and local government web resources and services.